Location: Wavehorne
(51.0500°N, 0.8333°E)
Time: 19:40:52
(UTC+00:00)

Cosmos 2221 - Pass Details

Date: 20 June 2021
Orbit: 591 x 616 km, 82.5° (Epoch: 23 July)

Event Time Altitude Azimuth Distance (km) Brightness Sun altitude
Rises 00:18:31 0° 356° (N) 2,867 7.7 -15.4°
Reaches altitude 10° 00:20:56 10° 6° (N) 1,955 6.5 -15.3°
Maximum altitude 00:24:51 33° 71° (ENE) 1,011 3.9 -15.3°
Enters shadow 00:28:22 12° 134° (SE) 1,800 4.6 -15.2°
